Overview Statistics Trail Chart Weather Telemetry Raw packets
 

This is the latest recevied weather packets stored in our database for station/object N4DWK. If no packets are shown the sender has not sent any weather packets the latest 10 day(s).

<< 81 82 83 84 85 86 87 >>
Time Temp. Humidity Pressure Rain* Wind** Luminosity Snow
1788027909 29.44° C 70% 1022.9 hPa 0 mm - 462 W/m² -
1788027610 29.44° C 72% 1023 hPa 0 mm - 596 W/m² -
1788027309 29.44° C 74% 1023.1 hPa 0 mm - 155 W/m² -
1788027010 28.89° C 74% 1023.1 hPa 0 mm - 610 W/m² -
1788026710 28.33° C 74% 1023.1 hPa 0 mm - 181 W/m² -
1788026409 28.33° C 73% 1023.2 hPa 0 mm - 418 W/m² -
1788026115 28.33° C 73% 1023.3 hPa 0 mm - 306 W/m² -
1788025809 28.33° C 74% 1023.4 hPa 0 mm - 156 W/m² -
1788025509 28.89° C 74% 1023.4 hPa 0 mm - 137 W/m² -
1788025209 28.89° C 73% 1023.5 hPa 0 mm - 369 W/m² -
1788024909 28.33° C 76% 1023.4 hPa 0 mm - 406 W/m² -
1788024610 27.78° C 78% 1023.4 hPa 0 mm - 482 W/m² -
1788024309 27.78° C 78% 1023.4 hPa 0 mm - 325 W/m² -
1788024010 27.78° C 76% 1023.4 hPa 0 mm - 192 W/m² -
1788023709 27.78° C 76% 1023.4 hPa 0 mm - 155 W/m² -
1788023409 27.78° C 77% 1023.4 hPa 0 mm - 234 W/m² -
1788023110 27.22° C 77% 1023.3 hPa 0 mm - 403 W/m² -
1788022809 27.22° C 77% 1023.5 hPa 0 mm - 519 W/m² -
1788022509 27.22° C 76% 1023.5 hPa 0 mm - 162 W/m² -
1788022209 27.78° C 77% 1023.4 hPa 0 mm - 116 W/m² -
1788021908 27.22° C 79% 1023.3 hPa 0 mm - 202 W/m² -
1788021609 27.22° C 77% 1023.3 hPa 0 mm - 183 W/m² -
1788021310 27.22° C 78% 1023.3 hPa 0 mm - 158 W/m² -
1788021009 27.22° C 79% 1023.3 hPa 0 mm - 146 W/m² -
1788020709 27.22° C 77% 1023.3 hPa 0 mm - 139 W/m² -

* Rain latest hour (hover to see other rain measurements)
** Current wind speed in m/s (hover to see current wind gust speed)